FW4738 Weather Reports


time (UTC)temp
F
wind
direction
speed
knots
gust
knots
rain 1hr
in
rain 24hr
in
rain mn
in
humidity
%
barometer
mb
20260510105315 48 0 4.3 9.6 0.00 0.05 0.00 86 1008.5
20260510104147 48 269 3.5 9.6 0.00 0.05 0.00 88 1008.2
20260510103649 48 308 3.5 8.7 0.00 0.05 0.00 88 1008.2
20260510103146 48 229 3.5 8.7 0.00 0.05 0.00 88 1008.1
20260510102645 48 270 4.3 8.7 0.00 0.05 0.00 88 1008.0
20260510102144 48 248 3.5 8.7 0.00 0.05 0.00 89 1007.8
20260510102028 48 245 2.6 8.7 0.00 0.05 0.00 88 1007.7
20260510101143 48 251 2.6 7.0 0.00 0.05 0.00 88 1007.6
20260510100643 48 240 2.6 7.0 0.00 0.05 0.00 88 1007.4
20260510100144 49 209 1.7 7.0 0.00 0.05 0.00 88 1007.4
20260510095644 49 256 2.6 7.0 0.00 0.05 0.00 88 1007.3
20260510095144 49 222 2.6 7.0 0.00 0.05 0.00 88 1007.2
20260510095109 49 234 2.6 7.0 0.00 0.05 0.00 88 1007.1
20260510094143 49 218 2.6 9.6 0.00 0.05 0.00 88 1007.0
20260510094032 49 207 2.6 9.6 0.00 0.05 0.00 87 1007.0
20260510093144 49 269 2.6 8.7 0.00 0.05 0.00 87 1007.0
20260510092917 49 214 2.6 7.0 0.00 0.05 0.00 88 1006.8
20260510092807 49 263 2.6 8.7 0.00 0.05 0.00 87 1006.8
20260510092031 49 169 2.6 7.0 0.00 0.05 0.00 88 1006.8
20260510091448 49 213 2.6 7.8 0.00 0.05 0.00 88 1006.7
20260510091330 49 198 1.7 7.0 0.00 0.05 0.00 88 1006.7
20260510090524 49 235 2.6 7.8 0.00 0.05 0.00 89 1006.7
20260510090028 50 233 3.5 7.8 0.00 0.05 0.00 89 1006.6
20260510085525 50 249 3.5 7.8 0.00 0.05 0.00 90 1006.6
20260510084659 50 182 2.6 7.8 0.00 0.05 0.00 90 1006.7
20260510084144 50 261 2.6 7.8 0.00 0.05 0.00 90 1006.7
20260510083644 50 218 2.6 6.1 0.00 0.05 0.00 90 1006.6
20260510083143 50 263 2.6 7.0 0.00 0.05 0.00 91 1006.6
20260510082641 50 217 2.6 7.0 0.00 0.05 0.00 91 1006.5
20260510082522 50 224 2.6 6.1 0.00 0.05 0.00 91 1006.5
20260510082027 50 185 2.6 7.8 0.00 0.05 0.00 91 1006.5
20260510081144 50 248 3.5 7.8 0.00 0.05 0.00 91 1006.4
20260510080642 49 193 3.5 8.7 0.00 0.05 0.00 91 1006.3
20260510080144 49 199 2.6 8.7 0.00 0.05 0.00 91 1006.2
20260510075640 49 266 2.6 6.1 0.00 0.05 0.00 91 1006.2
20260510075136 49 184 1.7 6.1 0.00 0.05 0.00 91 1006.2
20260510074638 49 215 2.6 6.1 0.00 0.05 0.00 91 1006.2
20260510074135 49 232 2.6 10.4 0.00 0.05 0.00 92 1006.2
20260510073633 50 242 2.6 10.4 0.00 0.05 0.00 92 1006.1
20260510073518 49 250 2.6 5.2 0.00 0.05 0.00 91 1006.1
20260510073022 50 204 2.6 6.1 0.00 0.05 0.00 91 1005.8
20260510072139 50 215 2.6 6.1 0.00 0.05 0.00 91 1005.8
20260510071635 50 214 2.6 6.1 0.00 0.05 0.00 91 1005.9
20260510071505 50 201 1.7 6.1 0.00 0.05 0.00 91 1005.8
20260510070632 50 236 2.6 7.0 0.00 0.05 0.00 91 1005.8
20260510070132 50 208 2.6 7.0 0.00 0.05 0.00 91 1005.9
20260510070019 50 215 3.5 7.8 0.00 0.05 0.00 91 1005.6
20260510065130 51 147 3.5 8.7 0.00 0.05 0.00 91 1005.6
20260510065017 51 164 3.5 8.7 0.00 0.05 0.00 91 1005.7
20260510064502 51 196 3.5 8.7 0.00 0.05 0.00 91 1005.8
20260510063629 51 200 3.5 8.7 0.00 0.05 0.00 92 1005.7
20260510063131 51 189 2.6 7.0 0.00 0.05 0.00 92 1005.7
20260510062630 51 193 2.6 7.0 0.00 0.05 0.00 91 1005.6
20260510062411 51 296 2.6 7.8 0.00 0.05 0.00 91 1005.7
20260510062307 51 215 2.6 7.8 0.00 0.05 0.00 91 1005.6
20260510061128 51 198 3.5 8.7 0.00 0.05 0.00 91 1005.6
20260510060632 51 205 3.5 8.7 0.00 0.05 0.00 91 1005.6
20260510060217 51 193 3.5 9.6 0.00 0.05 0.00 91 1005.5
20260510060200 51 208 3.5 7.8 0.00 0.05 0.00 90 1005.6
20260510054634 51 210 3.5 9.6 0.00 0.05 0.00 90 1005.7
20260510054438 52 197 4.3 13.0 0.00 0.05 0.00 90 1005.3
20260510054327 51 205 4.3 13.0 0.00 0.05 0.00 90 1005.5
20260510053129 52 223 3.5 9.6 0.00 0.05 0.00 90 1005.2
20260510053003 52 254 3.5 9.6 0.00 0.05 0.00 90 1005.2
20260510052356 52 182 4.3 12.2 0.00 0.05 0.00 90 1005.1
20260510052255 52 211 4.3 9.6 0.00 0.05 0.00 90 1005.1
20260510051453 52 238 5.2 12.2 0.00 0.05 0.00 89 1005.0
20260510050628 52 215 5.2 13.9 0.00 0.05 0.00 89 1004.9
20260510050538 52 192 6.1 13.9 0.00 0.05 0.00 89 1004.8
20260510045629 52 191 6.1 11.3 0.00 0.05 0.00 89 1004.7
20260510045128 53 183 6.1 16.5 0.00 0.05 0.00 88 1004.7
20260510044629 53 199 6.1 16.5 0.00 0.05 0.00 88 1004.7
20260510044128 53 198 6.1 15.6 0.00 0.05 0.00 88 1004.6
20260510043629 53 212 6.1 15.6 0.00 0.05 0.00 88 1004.6
20260510043129 53 165 5.2 13.0 0.00 0.05 0.00 88 1004.5
20260510042631 53 185 5.2 13.9 0.00 0.05 0.00 88 1004.5
20260510042130 53 202 6.1 15.6 0.00 0.05 0.00 88 1004.0
20260510041628 53 198 6.1 15.6 0.00 0.05 0.00 88 1004.3
20260510041128 53 194 5.2 14.8 0.00 0.05 0.00 89 1004.2
20260510040628 54 215 5.2 14.8 0.01 0.05 0.00 89 1004.2
20260510040128 54 188 5.2 13.0 0.02 0.05 0.00 89 1004.3
20260510035626 54 246 6.1 12.2 0.03 0.05 0.03 89 1004.2
20260510035127 54 219 7.0 13.9 0.05 0.05 0.03 89 1004.2
20260510034627 54 201 6.1 16.5 0.05 0.05 0.03 89 1004.2
20260510034129 53 209 5.2 16.5 0.05 0.05 0.03 89 1004.1
20260510033653 53 126 4.3 10.4 0.05 0.05 0.03 89 1004.2
20260510033123 53 192 5.2 12.2 0.05 0.05 0.03 89 1004.1
20260510032623 53 186 5.2 12.2 0.05 0.05 0.03 88 1004.0
20260510032123 53 189 5.2 11.3 0.05 0.05 0.03 88 1004.0
20260510031623 53 179 5.2 11.3 0.05 0.05 0.03 87 1004.1
20260510031123 54 192 5.2 12.2 0.05 0.05 0.03 86 1004.1
20260510030641 54 190 4.3 12.2 0.04 0.04 0.03 85 1004.1
20260510030126 55 182 5.2 19.1 0.03 0.03 0.03 83 1004.2
20260510025627 55 189 6.1 19.1 0.02 0.02 0.00 81 1004.1
20260510025129 56 192 6.1 14.8 0.00 0.00 0.00 79 1003.9
20260510024623 56 182 6.1 13.9 0.00 0.00 0.00 78 1003.7
20260510024116 56 168 6.1 13.9 0.00 0.00 0.00 76 1003.7
20260510023630 56 182 6.1 12.2 0.00 0.00 0.00 76 1003.7
20260510023114 56 193 6.1 9.6 0.00 0.00 0.00 75 1003.7
20260510022830 56 184 6.1 10.4 0.00 0.00 0.00 74 1003.6
20260510022736 56 175 6.1 9.6 0.00 0.00 0.00 75 1003.7
20260510021951 56 173 5.2 10.4 0.00 0.00 0.00 74 1003.6
20260510021545 57 159 5.2 10.4 0.00 0.00 0.00 73 1003.6
20260510021537 57 176 5.2 10.4 0.00 0.00 0.00 73 1003.7
20260510021530 57 153 4.3 8.7 0.00 0.00 0.00 74 1003.3
20260510021136 56 179 4.3 10.4 0.00 0.00 0.00 74 1003.5
20260510015112 57 157 5.2 12.2 0.00 0.00 0.00 73 1003.8
20260510014952 57 175 4.3 12.2 0.00 0.00 0.00 72 1003.9
20260510014112 57 148 4.3 7.8 0.00 0.00 0.00 72 1004.1
20260510013607 57 164 4.3 7.8 0.00 0.00 0.00 71 1004.1
20260510013448 57 182 4.3 6.1 0.00 0.00 0.00 71 1004.2
20260510012608 57 135 4.3 7.8 0.00 0.00 0.00 71 1004.1
20260510012501 57 161 4.3 7.8 0.00 0.00 0.00 71 1004.0
20260510011820 58 184 3.5 9.6 0.00 0.00 0.00 70 1004.0
20260510011726 58 184 4.3 7.0 0.00 0.00 0.00 71 1004.0
20260510010605 58 155 3.5 9.6 0.00 0.00 0.00 70 1003.9
20260510010106 58 0 3.5 6.1 0.00 0.00 0.00 70 1003.9
20260510005602 58 175 3.5 6.1 0.00 0.00 0.00 70 1004.0
20260510005102 58 173 3.5 6.1 0.00 0.00 0.00 70 1004.1
20260510004940 58 184 3.5 7.0 0.00 0.00 0.00 70 1004.1
20260510004104 58 180 3.5 7.0 0.00 0.00 0.00 70 1004.1
20260510003945 58 176 3.5 7.8 0.00 0.00 0.00 69 1004.1
20260510003103 58 175 3.5 7.8 0.00 0.00 0.00 69 1003.9
20260510002604 58 182 3.5 6.1 0.00 0.00 0.00 68 1004.1
20260510002107 59 180 3.5 6.1 0.00 0.00 0.00 68 1004.3
20260510001605 59 248 3.5 10.4 0.00 0.00 0.00 67 1004.3
20260510001446 59 182 4.3 10.4 0.00 0.00 0.00 67 1004.4
20260510000605 60 187 3.5 9.6 0.00 0.00 0.00 66 1004.5
20260510000105 60 187 3.5 6.1 0.00 0.00 0.00 66 1004.5
20260509235602 60 176 3.5 7.8 0.00 0.00 0.00 66 1004.6
20260509235102 60 184 3.5 13.0 0.00 0.00 0.00 65 1004.7
20260509234936 60 178 4.3 13.0 0.00 0.00 0.00 65 1004.8
20260509234327 61 191 5.2 13.9 0.00 0.00 0.00 63 1004.8
20260509234227 61 211 5.2 13.9 0.00 0.00 0.00 64 1004.8
20260509233531 61 208 5.2 12.2 0.00 0.00 0.00 63 1004.8
20260509232558 61 202 6.1 14.8 0.00 0.00 0.00 62 1004.7
20260509232056 61 211 6.1 14.8 0.00 0.00 0.00 61 1004.7
20260509231555 62 208 6.1 20.0 0.00 0.00 0.00 61 1004.6
20260509231057 62 180 6.1 20.0 0.00 0.00 0.00 60 1004.5
20260509230556 62 209 6.1 14.8 0.00 0.00 0.00 59 1004.4
20260509230055 62 173 6.1 16.5 0.00 0.00 0.00 59 1004.4
20260509225554 63 211 6.1 16.5 0.00 0.00 0.00 58 1004.3
20260509225055 63 196 5.2 14.8 0.00 0.00 0.00 57 1004.3
20260509224554 63 200 6.1 14.8 0.00 0.00 0.00 56 1004.2
20260509224054 64 224 6.1 14.8 0.00 0.00 0.00 55 1004.0
20260509223933 64 206 5.2 14.8 0.00 0.00 0.00 54 1004.0
20260509223054 64 189 6.1 19.1 0.00 0.00 0.00 53 1004.0
20260509222925 64 212 6.1 19.1 0.00 0.00 0.00 53 1004.0
20260509222431 65 182 5.2 16.5 0.00 0.00 0.00 51 1003.9
20260509221550 65 196 6.1 16.5 0.00 0.00 0.00 50 1003.9
20260509221052 65 177 5.2 12.2 0.00 0.00 0.00 48 1003.9
20260509220924 66 212 4.3 12.2 0.00 0.00 0.00 46 1004.0
20260509220045 66 175 4.3 9.6 0.00 0.00 0.00 46 1004.1
20260509215545 66 178 4.3 9.6 0.00 0.00 0.00 45 1004.1
20260509215045 66 201 5.2 12.2 0.00 0.00 0.00 43 1004.1
20260509214545 67 192 5.2 12.2 0.00 0.00 0.00 43 1004.1
20260509214043 67 189 5.2 13.0 0.00 0.00 0.00 44 1004.1
20260509213544 67 187 5.2 15.6 0.00 0.00 0.00 41 1004.2
20260509213043 67 207 6.1 15.6 0.00 0.00 0.00 41 1004.2
20260509212544 68 175 6.1 13.0 0.00 0.00 0.00 41 1004.2
20260509212044 68 202 5.2 12.2 0.00 0.00 0.00 44 1004.3
20260509211537 67 157 5.2 10.4 0.00 0.00 0.00 45 1004.2
20260509211435 67 183 5.2 11.3 0.00 0.00 0.00 44 1004.4
20260509210540 67 191 5.2 11.3 0.00 0.00 0.00 42 1004.4
20260509210500 67 189 5.2 10.4 0.00 0.00 0.00 46 1004.4
20260509205535 67 167 5.2 10.4 0.00 0.00 0.00 42 1004.3
20260509205035 68 190 6.1 12.2 0.00 0.00 0.00 42 1004.3
20260509204534 68 178 7.0 12.2 0.00 0.00 0.00 42 1004.4
20260509204034 69 175 6.1 11.3 0.00 0.00 0.00 42 1004.4
20260509203536 69 152 5.2 11.3 0.00 0.00 0.00 44 1004.3
20260509203037 68 227 6.1 11.3 0.00 0.00 0.00 44 1004.4
20260509202530 66 198 6.1 11.3 0.00 0.00 0.00 45 1004.4
20260509202032 66 140 6.1 13.0 0.00 0.00 0.00 41 1004.5
20260509201530 68 159 6.1 13.0 0.00 0.00 0.00 42 1004.6
20260509201029 69 209 7.0 13.0 0.00 0.00 0.00 39 1004.6
20260509200531 69 190 7.0 14.8 0.00 0.00 0.00 42 1004.5
20260509200059 69 173 5.2 14.8 0.00 0.00 0.00 38 1004.6
20260509195528 68 174 4.3 13.0 0.00 0.00 0.00 37 1004.7
20260509195029 68 173 4.3 13.0 0.00 0.00 0.00 37 1004.7
20260509194531 69 201 6.1 16.5 0.00 0.00 0.00 36 1004.8
20260509194359 69 175 7.0 16.5 0.00 0.00 0.00 38 1004.9
20260509193911 70 191 6.1 12.2 0.00 0.00 0.00 37 1005.0
20260509193045 70 188 5.2 12.2 0.00 0.00 0.00 34 1004.8
20260509192529 69 171 6.1 12.2 0.00 0.00 0.00 34 1004.9
20260509192030 69 184 6.1 13.0 0.00 0.00 0.00 34 1005.1
20260509191528 70 136 6.1 13.0 0.00 0.00 0.00 31 1005.2
20260509191029 70 194 7.0 13.9 0.00 0.00 0.00 30 1005.3
20260509190530 71 177 6.1 13.9 0.00 0.00 0.00 32 1005.3
20260509190517 69 147 4.3 8.7 0.00 0.00 0.00 33 1005.5
20260509190104 70 188 4.3 10.4 0.00 0.00 0.00 32 1005.4
20260509185156 69 188 5.2 12.2 0.00 0.00 0.00 31 1005.7
20260509184029 69 233 4.3 13.9 0.00 0.00 0.00 35 1005.7
20260509183530 69 242 3.5 13.9 0.00 0.00 0.00 33 1005.8
20260509183034 69 167 3.5 8.7 0.00 0.00 0.00 31 1005.8
20260509182530 69 136 6.1 12.2 0.00 0.00 0.00 31 1005.9
20260509182029 69 157 6.1 12.2 0.00 0.00 0.00 30 1006.1
20260509181532 69 192 4.3 12.2 0.00 0.00 0.00 33 1006.1
20260509181414 69 160 4.3 12.2 0.00 0.00 0.00 29 1006.1
20260509180531 69 103 5.2 12.2 0.00 0.00 0.00 30 1006.2
20260509180036 69 169 5.2 13.9 0.00 0.00 0.00 30 1006.2
20260509175535 68 156 4.3 13.9 0.00 0.00 0.00 34 1006.2
20260509175400 68 139 5.2 10.4 0.00 0.00 0.00 31 1006.3
20260509174534 68 166 6.1 12.2 0.00 0.00 0.00 34 1006.5
20260509174402 68 157 5.2 12.2 0.00 0.00 0.00 34 1006.5
20260509173533 68 178 3.5 13.0 0.00 0.00 0.00 31 1006.6
20260509173031 68 177 4.3 13.0 0.00 0.00 0.00 32 1006.7
20260509172739 67 144 4.3 10.4 0.00 0.00 0.00 38 1006.9
20260509172649 68 180 4.3 8.7 0.00 0.00 0.00 37 1006.7
20260509171530 67 153 5.2 11.3 0.00 0.00 0.00 29 1006.9
20260509171030 67 190 5.2 11.3 0.00 0.00 0.00 31 1007.0
20260509170530 68 188 4.3 8.7 0.00 0.00 0.00 35 1007.1
20260509170400 67 183 4.3 13.9 0.00 0.00 0.00 33 1007.2
20260509165901 66 200 5.2 13.9 0.00 0.00 0.00 35 1007.2
20260509165031 67 193 5.2 10.4 0.00 0.00 0.00 34 1007.3
20260509164530 67 178 6.1 12.2 0.00 0.00 0.00 37 1007.5
20260509164031 67 171 5.2 12.2 0.00 0.00 0.00 35 1007.5
20260509163530 67 153 4.3 10.4 0.00 0.00 0.00 32 1007.6
20260509163031 66 160 4.3 12.2 0.00 0.00 0.00 34 1007.6
20260509162531 66 211 5.2 12.2 0.00 0.00 0.00 38 1007.8
20260509162031 66 173 4.3 9.6 0.00 0.00 0.00 36 1007.9
20260509161534 65 187 5.2 13.0 0.00 0.00 0.00 34 1008.0
20260509161033 66 153 4.3 13.0 0.00 0.00 0.00 38 1008.1
20260509160910 65 167 4.3 10.4 0.00 0.00 0.00 38 1008.2
20260509160033 65 200 5.2 10.4 0.00 0.00 0.00 37 1008.3
20260509155533 66 171 4.3 10.4 0.00 0.00 0.00 40 1008.5
20260509155034 65 196 4.3 8.7 0.00 0.00 0.00 36 1008.5
20260509154533 66 125 4.3 9.6 0.00 0.00 0.00 35 1008.7
20260509154400 65 188 4.3 9.6 0.00 0.00 0.00 39 1008.7
20260509153533 65 177 5.2 12.2 0.00 0.00 0.00 34 1008.8
20260509153032 64 202 6.1 13.0 0.00 0.00 0.00 39 1008.9
20260509152532 64 193 5.2 13.0 0.00 0.00 0.00 36 1008.9
20260509152033 64 200 5.2 10.4 0.00 0.00 0.00 41 1009.0
20260509151532 64 201 6.1 12.2 0.00 0.00 0.00 39 1009.2
20260509151211 63 202 5.2 13.0 0.00 0.00 0.00 41 1009.3
20260509151205 63 192 5.2 14.8 0.00 0.00 0.00 40 1009.3
20260509151126 64 202 6.1 14.8 0.00 0.00 0.00 38 1009.2
20260509145534 63 207 4.3 13.0 0.00 0.00 0.00 41 1009.3
20260509145033 63 177 4.3 10.4 0.00 0.00 0.00 41 1009.4
20260509144538 63 182 5.2 16.5 0.00 0.00 0.00 44 1009.5
20260509144033 63 172 5.2 16.5 0.00 0.00 0.00 44 1009.5
20260509143915 63 157 5.2 10.4 0.00 0.00 0.00 44 1009.4
20260509143026 63 207 4.3 10.4 0.00 0.00 0.00 44 1009.5
20260509142529 62 180 4.3 8.7 0.00 0.00 0.00 44 1009.6
20260509142402 62 190 4.3 9.6 0.00 0.00 0.00 47 1009.6
20260509141526 62 189 5.2 10.4 0.00 0.00 0.00 45 1009.6
20260509141025 61 202 4.3 10.4 0.00 0.00 0.00 46 1009.6
20260509140523 61 193 4.3 11.3 0.00 0.00 0.00 47 1009.7
20260509140025 61 182 4.3 11.3 0.00 0.00 0.00 47 1009.7
20260509135522 60 184 4.3 9.6 0.00 0.00 0.00 48 1009.7
20260509135023 59 163 4.3 9.6 0.00 0.00 0.00 47 1009.7
20260509134906 59 202 3.5 9.6 0.00 0.00 0.00 48 1009.8
20260509134358 59 185 2.6 8.7 0.00 0.00 0.00 48 1009.8
20260509133520 58 226 2.6 8.7 0.00 0.00 0.00 47 1009.8
20260509133020 58 183 2.6 7.0 0.00 0.00 0.00 46 1009.8
20260509132519 57 182 2.6 8.7 0.00 0.00 0.00 49 1009.9
20260509132020 57 185 2.6 8.7 0.00 0.00 0.00 48 1009.9
20260509131521 56 223 2.6 6.1 0.00 0.00 0.00 49 1009.9
20260509131116 54 237 2.6 7.0 0.00 0.00 0.00 53 1010.0
20260509131110 54 201 2.6 8.7 0.00 0.00 0.00 52 1010.0
20260509131046 56 165 3.5 6.1 0.00 0.00 0.00 50 1010.0
20260509130633 55 217 3.5 6.1 0.00 0.00 0.00 51 1010.0
20260509125019 53 196 3.5 8.7 0.00 0.00 0.00 52 1010.0
20260509124906 53 190 3.5 10.4 0.00 0.00 0.00 53 1010.0
20260509124402 53 246 3.5 10.4 0.00 0.00 0.00 57 1010.2
20260509123520 52 163 3.5 7.8 0.00 0.00 0.00 56 1010.2
20260509123352 52 190 3.5 8.7 0.00 0.00 0.00 55 1010.3
20260509122519 52 211 4.3 8.7 0.00 0.00 0.00 55 1010.2
20260509122020 51 222 4.3 8.7 0.00 0.00 0.00 60 1010.3
20260509121858 50 183 4.3 8.7 0.00 0.00 0.00 59 1010.3
20260509121019 49 191 3.5 8.7 0.00 0.00 0.00 61 1010.3
20260509120519 48 202 3.5 7.8 0.00 0.00 0.00 63 1010.3
20260509120020 47 192 3.5 7.8 0.00 0.00 0.00 63 1010.3
20260509115834 46 197 3.5 8.7 0.00 0.00 0.00 64 1010.4
20260509115706 47 192 3.5 7.8 0.00 0.00 0.00 63 1010.3
20260509114520 46 193 3.5 8.7 0.00 0.00 0.00 64 1010.3
20260509114019 45 176 2.6 5.2 0.00 0.00 0.00 67 1010.3
20260509113520 44 192 2.6 5.2 0.00 0.00 0.00 68 1010.4
20260509113015 43 171 1.7 4.3 0.00 0.00 0.00 68 1010.4
20260509112515 42 180 1.7 4.3 0.00 0.00 0.00 68 1010.3
20260509112347 42 169 1.7 4.3 0.00 0.00 0.00 69 1010.4
20260509111522 42 153 2.6 5.2 0.00 0.00 0.00 70 1010.3
20260509111351 41 209 1.7 5.2 0.00 0.00 0.00 71 1010.3
20260509110514 40 167 1.7 4.3 0.00 0.00 0.00 74 1010.3
20260509110017 39 153 1.7 3.5 0.00 0.00 0.00 74 1010.2
20260509105537 39 159 0.9 3.5 0.00 0.00 0.00 75 1010.2